This is the latest recevied weather packets stored in our database for station/object KK7MLS-13. If no packets are shown the sender has not sent any weather packets the latest 1 day(s).
| Time | Temp. | Humidity | Pressure | Rain* | Wind** | Luminosity | Snow |
|---|---|---|---|---|---|---|---|
| 1778037271 | 16.67° C | 73% | 1016 hPa | 0 mm | - | 4 W/m² | - |
| 1778036969 | 16.67° C | 73% | 1015.8 hPa | 0 mm | - | 5 W/m² | - |
| 1778036363 | 17.22° C | 72% | 1015.9 hPa | 0 mm | - | 10 W/m² | - |
| 1778036060 | 17.22° C | 71% | 1015.6 hPa | 0 mm | - | 12 W/m² | - |
| 1778035454 | 17.78° C | 70% | 1015.7 hPa | 0 mm | - | 18 W/m² | - |
| 1778034847 | 17.78° C | 68% | 1015.5 hPa | 0 mm | - | 23 W/m² | - |
| 1778034241 | 18.33° C | 69% | 1015.7 hPa | 0 mm | - | 32 W/m² | - |
| 1778033939 | 18.33° C | 68% | 1015.6 hPa | 0 mm | - | 35 W/m² | - |
| 1778033635 | 18.33° C | 67% | 1015.7 hPa | 0 mm | - | 39 W/m² | - |
| 1778033332 | 18.33° C | 66% | 1015.5 hPa | 0 mm | - | 35 W/m² | - |
| 1778032727 | 18.89° C | 64% | 1015.6 hPa | 0 mm | - | 40 W/m² | - |
| 1778032425 | 19.44° C | 64% | 1015.6 hPa | 0 mm | - | 46 W/m² | - |
| 1778031818 | 20° C | 62% | 1015.6 hPa | 0 mm | - | 53 W/m² | - |
| 1778031515 | 20° C | 62% | 1015.6 hPa | 0 mm | - | 68 W/m² | - |
| 1778031212 | 19.44° C | 66% | 1015.8 hPa | 0 mm | - | 155 W/m² | - |
| 1778030909 | 19.44° C | 62% | 1015.9 hPa | 0 mm | - | 85 W/m² | - |
| 1778030606 | 19.44° C | 64% | 1015.8 hPa | 0 mm | - | 93 W/m² | - |
| 1778030303 | 19.44° C | 63% | 1015.6 hPa | 0 mm | - | 93 W/m² | - |
| 1778030000 | 20° C | 61% | 1015.6 hPa | 0 mm | - | 89 W/m² | - |
| 1778029697 | 20° C | 61% | 1015.6 hPa | 0 mm | - | 82 W/m² | - |
| 1778029395 | 20° C | 61% | 1015.8 hPa | 0 mm | - | 87 W/m² | - |
| 1778029092 | 19.44° C | 63% | 1015.7 hPa | 0 mm | - | 204 W/m² | - |
| 1778027878 | 18.33° C | 69% | 1015.7 hPa | 0 mm | - | 118 W/m² | - |
| 1778027575 | 17.78° C | 70% | 1015.6 hPa | 0 mm | - | 110 W/m² | - |
| 1778027271 | 17.78° C | 70% | 1015.8 hPa | 0 mm | - | 130 W/m² | - |
* Rain latest hour (hover to see other rain measurements)
** Current wind speed in m/s (hover to see current wind gust speed)